PDA3013 UKBB-UKLH

Flight info

Callsign PDA3013
Flight time 0h 49m
Altitude 16000
Route SLV DCT SITBA
Aircraft AN24/M-SDRUYZ/C

Departure

Time 2026-04-22 19:46
Airport Boryspil International Airport (UKBB)

Arrival

Time 2026-04-22 20:35
Airport Khmelnytskyi Airport (UKLH)
Time Latitude Longitude Altitude Speed Heading
2026-04-22 19:35 50.33781 30.89354 427 ft 0 kts 272°
2026-04-22 19:43 50.33780 30.89345 427 ft 7 kts 251°
2026-04-22 19:43 50.33754 30.89401 427 ft 14 kts 97°
2026-04-22 19:43 50.33738 30.89558 427 ft 21 kts 105°
2026-04-22 19:44 50.33683 30.89700 427 ft 19 kts 172°
2026-04-22 19:44 50.33603 30.89883 427 ft 30 kts 92°
2026-04-22 19:44 50.33583 30.90123 427 ft 14 kts 140°
2026-04-22 19:44 50.33462 30.90124 427 ft 24 kts 181°
2026-04-22 19:45 50.33338 30.90169 427 ft 13 kts 134°
2026-04-22 19:45 50.33318 30.90270 427 ft 11 kts 84°
2026-04-22 19:45 50.33413 30.90445 427 ft 50 kts
2026-04-22 19:45 50.33999 30.90484 433 ft 116 kts
2026-04-22 19:46 50.34899 30.90658 680 ft 140 kts
2026-04-22 19:46 50.35898 30.91003 1069 ft 157 kts 15°
2026-04-22 19:46 50.37032 30.91594 1228 ft 186 kts 18°
2026-04-22 19:46 50.38222 30.92089 2001 ft 171 kts
2026-04-22 19:47 50.39438 30.92011 2388 ft 182 kts 347°
2026-04-22 19:47 50.40651 30.91428 2920 ft 181 kts 330°
2026-04-22 19:47 50.41641 30.90286 3533 ft 176 kts 314°
2026-04-22 19:47 50.42404 30.88804 4056 ft 178 kts 303°
2026-04-22 19:48 50.42950 30.87060 4486 ft 184 kts 288°
2026-04-22 19:48 50.43260 30.85123 4982 ft 183 kts 277°
2026-04-22 19:48 50.43265 30.83112 5381 ft 187 kts 263°
2026-04-22 19:48 50.42951 30.81098 5775 ft 191 kts 256°
2026-04-22 19:49 50.42610 30.79089 6217 ft 192 kts 257°
2026-04-22 19:49 50.42267 30.77066 6654 ft 193 kts 256°
2026-04-22 19:49 50.41911 30.75049 7086 ft 194 kts 256°
2026-04-22 19:49 50.41547 30.73040 7514 ft 195 kts 255°
2026-04-22 19:50 50.41172 30.70982 7950 ft 195 kts 255°
2026-04-22 19:50 50.40802 30.68944 8378 ft 196 kts 256°
2026-04-22 19:50 50.40434 30.66908 8802 ft 197 kts 256°
2026-04-22 19:50 50.40060 30.64833 9232 ft 198 kts 256°
2026-04-22 19:51 50.39685 30.62754 9660 ft 198 kts 256°
2026-04-22 19:51 50.39313 30.60688 10082 ft 199 kts 256°
2026-04-22 19:51 50.38939 30.58608 10504 ft 200 kts 256°
2026-04-22 19:51 50.38562 30.56504 10926 ft 201 kts 256°
2026-04-22 19:52 50.38188 30.54408 11347 ft 202 kts 256°
2026-04-22 19:52 50.37808 30.52271 11779 ft 204 kts 256°
2026-04-22 19:52 50.37429 30.50132 12209 ft 205 kts 256°
2026-04-22 19:52 50.37048 30.47985 12639 ft 205 kts 256°
2026-04-22 19:53 50.36667 30.45845 13065 ft 205 kts 256°
2026-04-22 19:53 50.36286 30.43720 13483 ft 205 kts 256°
2026-04-22 19:53 50.35899 30.41575 13899 ft 204 kts 256°
2026-04-22 19:53 50.35507 30.39426 14310 ft 204 kts 256°
2026-04-22 19:54 50.35117 30.37303 14709 ft 203 kts 256°
2026-04-22 19:54 50.34730 30.35209 15094 ft 203 kts 256°
2026-04-22 19:54 50.34333 30.33060 15348 ft 209 kts 255°
2026-04-22 19:54 50.33922 30.30845 15633 ft 213 kts 255°
2026-04-22 19:55 50.33493 30.28533 15591 ft 232 kts 255°
2026-04-22 19:55 50.33027 30.26036 15685 ft 240 kts 255°
2026-04-22 19:55 50.32555 30.23500 15708 ft 247 kts 255°
2026-04-22 19:55 50.32070 30.20891 15646 ft 252 kts 255°
2026-04-22 19:56 50.31582 30.18250 15652 ft 254 kts 255°
2026-04-22 19:56 50.31092 30.15593 15671 ft 255 kts 255°
2026-04-22 19:56 50.30603 30.12926 15658 ft 257 kts 255°
2026-04-22 19:56 50.30108 30.10231 15668 ft 257 kts 255°
2026-04-22 19:57 50.29607 30.07510 15660 ft 259 kts 255°
2026-04-22 19:57 50.29108 30.04802 15663 ft 259 kts 255°
2026-04-22 19:57 50.28615 30.02133 15666 ft 259 kts 255°
2026-04-22 19:57 50.28110 29.99394 15654 ft 259 kts 255°
2026-04-22 19:58 50.27616 29.96714 15672 ft 257 kts 255°
2026-04-22 19:58 50.27120 29.94021 15654 ft 258 kts 255°
2026-04-22 19:58 50.26625 29.91331 15660 ft 257 kts 255°
2026-04-22 19:58 50.26135 29.88672 15667 ft 256 kts 255°
2026-04-22 19:59 50.25637 29.85969 15651 ft 257 kts 255°
2026-04-22 20:00 50.22667 29.69961 15668 ft 255 kts 255°
2026-04-22 20:00 50.22177 29.67327 15660 ft 256 kts 255°
2026-04-22 20:01 50.21598 29.64672 15674 ft 256 kts 246°
2026-04-22 20:01 50.20845 29.62206 15699 ft 255 kts 248°
2026-04-22 20:01 50.20113 29.59633 15611 ft 259 kts 247°
2026-04-22 20:01 50.19319 29.57125 15699 ft 255 kts 243°
2026-04-22 20:02 50.18470 29.54699 15698 ft 256 kts 244°
2026-04-22 20:02 50.17627 29.52250 15632 ft 258 kts 243°
2026-04-22 20:02 50.16764 29.49790 15650 ft 257 kts 243°
2026-04-22 20:02 50.15908 29.47379 15704 ft 255 kts 243°
2026-04-22 20:03 50.15035 29.44932 15638 ft 258 kts 243°
2026-04-22 20:03 50.14161 29.42483 15635 ft 258 kts 243°
2026-04-22 20:03 50.13295 29.40054 15707 ft 255 kts 243°
2026-04-22 20:03 50.12443 29.37658 15648 ft 258 kts 243°
2026-04-22 20:04 50.11570 29.35200 15626 ft 258 kts 243°
2026-04-22 20:04 50.10679 29.32780 15674 ft 257 kts 238°
2026-04-22 20:04 50.09713 29.30444 15661 ft 258 kts 239°
2026-04-22 20:04 50.08755 29.28061 15607 ft 259 kts 239°
2026-04-22 20:05 50.07796 29.25706 15686 ft 256 kts 238°
2026-04-22 20:05 50.06832 29.23377 15708 ft 256 kts 238°
2026-04-22 20:05 50.05876 29.21084 15699 ft 256 kts 238°
2026-04-22 20:05 50.04906 29.18760 15720 ft 256 kts 238°
2026-04-22 20:06 50.03938 29.16437 15740 ft 255 kts 238°
2026-04-22 20:06 50.02973 29.14114 15743 ft 255 kts 238°
2026-04-22 20:06 50.01924 29.11889 15825 ft 253 kts 232°
2026-04-22 20:06 50.00827 29.09766 15782 ft 256 kts 233°
2026-04-22 20:07 49.99722 29.07583 15760 ft 257 kts 232°
2026-04-22 20:07 49.98615 29.05439 15860 ft 253 kts 232°
2026-04-22 20:07 49.97500 29.03319 15866 ft 254 kts 232°
2026-04-22 20:07 49.96370 29.01186 15833 ft 256 kts 232°
2026-04-22 20:08 49.95255 28.99085 15938 ft 251 kts 232°
2026-04-22 20:08 49.94154 28.97002 15951 ft 252 kts 232°
2026-04-22 20:08 49.93043 28.94891 15903 ft 254 kts 232°
2026-04-22 20:08 49.91928 28.92767 15977 ft 250 kts 232°
2026-04-22 20:09 49.90843 28.90685 15995 ft 250 kts 232°
2026-04-22 20:09 49.89748 28.88569 15926 ft 253 kts 232°
2026-04-22 20:09 49.88646 28.86448 15919 ft 252 kts 232°
2026-04-22 20:09 49.87555 28.84340 15996 ft 249 kts 232°
2026-04-22 20:10 49.86492 28.82252 15949 ft 251 kts 232°
2026-04-22 20:10 49.85417 28.80110 15914 ft 252 kts 232°
2026-04-22 20:10 49.84354 28.77971 15993 ft 248 kts 232°
2026-04-22 20:10 49.83303 28.75848 15959 ft 250 kts 232°
2026-04-22 20:11 49.82235 28.73697 15911 ft 252 kts 232°
2026-04-22 20:11 49.81186 28.71591 15987 ft 248 kts 232°
2026-04-22 20:11 49.80135 28.69481 15970 ft 249 kts 232°
2026-04-22 20:11 49.79071 28.67351 15910 ft 252 kts 232°
2026-04-22 20:12 49.77996 28.65200 15979 ft 248 kts 232°
2026-04-22 20:12 49.76947 28.63099 15980 ft 249 kts 232°
2026-04-22 20:12 49.75885 28.60971 15913 ft 252 kts 232°
2026-04-22 20:12 49.74823 28.58846 15969 ft 249 kts 232°
2026-04-22 20:13 49.73767 28.56731 15992 ft 248 kts 232°
2026-04-22 20:13 49.72703 28.54601 15916 ft 252 kts 232°
2026-04-22 20:13 49.71635 28.52466 15961 ft 249 kts 232°
2026-04-22 20:13 49.70589 28.50377 16000 ft 248 kts 232°
2026-04-22 20:14 49.69515 28.48230 15922 ft 251 kts 232°
2026-04-22 20:14 49.68460 28.46127 15950 ft 250 kts 232°
2026-04-22 20:14 49.67391 28.43994 16003 ft 248 kts 232°
2026-04-22 20:14 49.66336 28.41888 15928 ft 251 kts 232°
2026-04-22 20:15 49.65269 28.39761 15941 ft 250 kts 232°
2026-04-22 20:15 49.64202 28.37635 16004 ft 248 kts 232°
2026-04-22 20:15 49.63144 28.35522 15933 ft 251 kts 232°
2026-04-22 20:15 49.62068 28.33372 15914 ft 251 kts 232°
2026-04-22 20:16 49.61013 28.31255 15988 ft 248 kts 232°
2026-04-22 20:16 49.59972 28.29165 15961 ft 250 kts 231°
2026-04-22 20:16 49.58908 28.27038 15909 ft 252 kts 231°
2026-04-22 20:16 49.57842 28.24913 15985 ft 248 kts 231°
2026-04-22 20:17 49.56784 28.22803 15971 ft 250 kts 231°
2026-04-22 20:17 49.55723 28.20687 15909 ft 252 kts 231°
2026-04-22 20:17 49.54659 28.18570 15978 ft 249 kts 231°
2026-04-22 20:17 49.53601 28.16462 15982 ft 249 kts 232°
2026-04-22 20:18 49.52529 28.14327 15912 ft 252 kts 231°
2026-04-22 20:18 49.51476 28.12234 15969 ft 249 kts 231°
2026-04-22 20:18 49.50411 28.10114 15991 ft 249 kts 232°
2026-04-22 20:18 49.49342 28.07984 15915 ft 252 kts 232°
2026-04-22 20:19 49.48274 28.05862 15961 ft 249 kts 232°
2026-04-22 20:19 49.47225 28.03773 15997 ft 248 kts 232°
2026-04-22 20:19 49.46160 28.01655 15921 ft 252 kts 232°
2026-04-22 20:19 49.45097 27.99547 15945 ft 246 kts 231°
2026-04-22 20:20 49.44061 27.97500 15978 ft 237 kts 231°
2026-04-22 20:20 49.43064 27.95528 15947 ft 232 kts 232°
2026-04-22 20:20 49.42085 27.93588 15916 ft 228 kts 232°
2026-04-22 20:20 49.41124 27.91683 15796 ft 222 kts 232°
2026-04-22 20:21 49.40186 27.89825 15617 ft 219 kts 232°
2026-04-22 20:21 49.39261 27.87988 15384 ft 219 kts 232°
2026-04-22 20:21 49.38327 27.86137 15130 ft 219 kts 232°
2026-04-22 20:21 49.37387 27.84273 14858 ft 221 kts 232°
2026-04-22 20:22 49.36466 27.82379 14579 ft 222 kts 239°
2026-04-22 20:22 49.35935 27.80174 14312 ft 221 kts 250°
2026-04-22 20:22 49.35487 27.77929 13975 ft 220 kts 259°
2026-04-22 20:22 49.35543 27.75597 13625 ft 221 kts 275°
2026-04-22 20:23 49.35698 27.73251 13247 ft 222 kts 273°
2026-04-22 20:23 49.35814 27.70881 12862 ft 224 kts 275°
2026-04-22 20:23 49.35976 27.68498 12483 ft 225 kts 276°
2026-04-22 20:23 49.36177 27.66119 12112 ft 226 kts 277°
2026-04-22 20:24 49.36185 27.63732 11778 ft 223 kts 260°
2026-04-22 20:24 49.35693 27.61518 11478 ft 219 kts 243°
2026-04-22 20:24 49.35048 27.59441 11157 ft 218 kts 246°
2026-04-22 20:24 49.34432 27.57310 10806 ft 219 kts 245°
2026-04-22 20:25 49.33789 27.55208 10463 ft 218 kts 243°
2026-04-22 20:25 49.33107 27.53126 10118 ft 218 kts 240°
2026-04-22 20:25 49.32279 27.51199 9825 ft 215 kts 237°
2026-04-22 20:25 49.31464 27.49278 9489 ft 215 kts 237°
2026-04-22 20:26 49.30648 27.47373 9159 ft 214 kts 236°
2026-04-22 20:26 49.29819 27.45486 8834 ft 213 kts 236°
2026-04-22 20:26 49.28986 27.43622 8511 ft 212 kts 234°
2026-04-22 20:26 49.27969 27.42009 8232 ft 209 kts 225°
2026-04-22 20:27 49.26952 27.40435 7909 ft 208 kts 226°
2026-04-22 20:27 49.25933 27.38849 7590 ft 208 kts 227°
2026-04-22 20:27 49.25010 27.37168 7304 ft 205 kts 230°
2026-04-22 20:27 49.24134 27.35468 6988 ft 205 kts 234°
2026-04-22 20:28 49.23283 27.33684 6640 ft 206 kts 233°
2026-04-22 20:28 49.22434 27.31913 6270 ft 208 kts 233°
2026-04-22 20:28 49.21585 27.30123 5907 ft 209 kts 234°
2026-04-22 20:28 49.20831 27.28233 5576 ft 208 kts 245°
2026-04-22 20:29 49.20394 27.26144 5277 ft 206 kts 258°
2026-04-22 20:29 49.20306 27.24003 5014 ft 202 kts 272°
2026-04-22 20:29 49.20567 27.21906 4760 ft 200 kts 286°
2026-04-22 20:29 49.20990 27.19898 4472 ft 198 kts 285°
2026-04-22 20:30 49.21396 27.17880 4162 ft 198 kts 286°
2026-04-22 20:30 49.21815 27.15885 3857 ft 197 kts 287°
2026-04-22 20:30 49.22245 27.13906 3556 ft 197 kts 287°
2026-04-22 20:30 49.22678 27.11929 3256 ft 196 kts 287°
2026-04-22 20:31 49.23107 27.09967 2961 ft 195 kts 287°
2026-04-22 20:31 49.23534 27.08010 2667 ft 194 kts 287°
2026-04-22 20:31 49.23949 27.06133 2652 ft 177 kts 287°
2026-04-22 20:31 49.24369 27.04377 2497 ft 172 kts 288°
2026-04-22 20:32 49.24744 27.02773 2528 ft 150 kts 289°
2026-04-22 20:32 49.25149 27.01434 2534 ft 121 kts 294°
2026-04-22 20:32 49.25537 27.00400 2407 ft 104 kts 298°
2026-04-22 20:32 49.26002 26.99523 2239 ft 116 kts 313°
2026-04-22 20:33 49.26622 26.98686 2244 ft 121 kts 315°
2026-04-22 20:33 49.27326 26.97927 2261 ft 122 kts 325°
2026-04-22 20:33 49.28080 26.97319 2382 ft 126 kts 332°
2026-04-22 20:33 49.28894 26.96747 2502 ft 130 kts 333°
2026-04-22 20:34 49.29735 26.96181 2562 ft 134 kts 335°
2026-04-22 20:34 49.30636 26.95733 2462 ft 141 kts 341°
2026-04-22 20:34 49.31589 26.95269 2217 ft 145 kts 339°
2026-04-22 20:34 49.32527 26.94810 1819 ft 140 kts 340°
2026-04-22 20:35 49.33434 26.94384 1533 ft 131 kts 339°
2026-04-22 20:35 49.34301 26.94042 1247 ft 124 kts 343°
2026-04-22 20:35 49.35069 26.93725 1142 ft 107 kts 344°
2026-04-22 20:35 49.35586 26.93512 1148 ft 37 kts 341°
2026-04-22 20:36 49.35647 26.93487 1149 ft 4 kts 347°
2026-04-22 20:36 49.35794 26.93434 1150 ft 30 kts 346°
2026-04-22 20:36 49.35906 26.93334 1152 ft 15 kts 269°
2026-04-22 20:36 49.35896 26.93211 1153 ft 4 kts 342°
2026-04-22 20:37 49.35993 26.93165 1154 ft 29 kts 341°
2026-04-22 20:37 49.36086 26.93127 1154 ft 11 kts 347°
2026-04-22 20:37 49.36226 26.93073 1153 ft 28 kts 345°
2026-04-22 20:37 49.36375 26.93015 1146 ft 12 kts 335°
2026-04-22 20:38 49.36374 26.92860 1129 ft 9 kts 234°
2026-04-22 20:38 49.36326 26.92843 1125 ft 8 kts 165°
2026-04-22 20:38 49.36311 26.92849 1126 ft 0 kts 162°